14:31
Airports
History
Links
Donate
Help keep this website running!
PayPal
Bitcoin
This page is community maintained. The information is intended for PC simulator navigation or reference.
Always use approved charts for navigation.
USHH
KHANTY MANSIYSK
KHANTY MANSIYSK (USHH)
Khanty-Mansiysk, Khanty-Mansiyskiy avtonomnyy o, Russian Federation (628010)
(C)
Lat/Lng:61° 1' 42.54" N / 69° 5' 9.84" E
61.028482 / 69.086067
Elevation:141'ft / 43mMSL
ID / ICAO:USHH
Runways:1
Longest:06-24
Asphalt 2,784m / 9,135ft
Controlled:Yes
METAR14:00 GMT 2017-12-18
Altimeter: 30.27
Visibility: 6.2 statute miles
Wind: 11.7 knots (from 220°)
Temp: -6°c / 21°f
Humidity: 48.8%

METAR: USHH 181400Z 22006MPS CAVOK M06/M15 Q1025 R24/421050 NOSIG RMK QFE765

(Powered by phpweather)
Airport Radio Frequencies
Tower: 118.1
Nearby VORs <50NM
Nearby NDBs
Runway 06 / 24
Dimensions:2784.2 x 45.1m 9135' x 148'ft
Surface:Asphalt
Edge Lights:High intensity
Runway 06 [A]Runway 24 [B]
Heading:075°TH 255°TH
Lat:
Lng:
61° 1' 31.12"N
69° 3' 39.65"E
61° 1' 53.95"N
69° 6' 40.03"E
ALS:CalvertCalvert
User Notes and Comments
61° 1' 42.54" N / 69° 5' 9.84" E
Distance To
Airport ID:
Nearby Airports
(C) SURGUT 145.3 NM
USRR ( WX ) E 81°
(C) KOGALYM 196.1 NM
USRK ENE 65°
(C) NIZHNEVARTOVSK 247.8 NM
USNN E 91°
(C) Plekhanovo 297.5 NM
USTL SSW 205°
(C) Roschino 297.5 NM
USTR SSW 206°
(C) SALEKHARD 391.6 NM
USDD NNW 348°
(C) KOLTSOVO 417.9 NM
USSS ( WX ) SW 224°
VFR Chart
Flight Planning at SkyVector.com